Regional Weather Roundup
Issued by NWS

Home | Current Version | Previous Version | Text Only | Print | Product List | Glossary On
Versions: 1 2 3 4 5 6 7 8 9 10 11 12 13 14 15 16 17 18 19 20 21 22 23 24 25 26 27 28 29 30 31 32 33 34 35 36 37 38 39 40 41 42 43 44 45 46 47 48 49 50
000
ASUS43 KOAX 290010
RWRNE

WEATHER ROUNDUP FOR NEBRASKA
NATIONAL WEATHER SERVICE OMAHA NE
700 PM CDT SAT MAY 28 2016

NOTES: SATELLITE DATA IS BEING USED TO AUGMENT CLOUD COVER ABOVE
       12000 FEET.
       "FAIR" INDICATES FEW OR NO CLOUDS BELOW 12,000 FEET WITH NO
       SIGNIFICANT WEATHER AND/OR OBSTRUCTIONS TO VISIBILITY.

  * THESE STATIONS DO NOT REPORT WEATHER SUCH AS RAIN...SNOW OR FOG.

NEZ001>004-019>022-054>056-290100-
NEBRASKA PANHANDLE

CITY           SKY/WX    TMP DP  RH WIND       PRES   REMARKS
SCOTTSBLUFF    MOSUNNY   75  43  31 N12       29.95R
6HR MIN TEMP:  70; 6HR MAX TEMP:  78; 6HR PCP: TRACE;

ALLIANCE       CLOUDY    60  53  77 E7        29.95F
6HR MIN TEMP:  60; 6HR MAX TEMP:  73; 6HR PCP:  0.09;

CHADRON        CLOUDY    57  50  77 N12       29.98S
6HR MIN TEMP:  56; 6HR MAX TEMP:  73; 6HR PCP:  0.03;

KIMBALL        CLOUDY    68  40  36 SW6       30.02S
SIDNEY         CLOUDY    66  50  56 SW9       29.99R
6HR MIN TEMP:  62; 6HR MAX TEMP:  73; 6HR PCP:  0.05;

$$

NEZ057>060-069>072-079>082-290100-
SOUTHWEST NEBRASKA

CITY           SKY/WX    TMP DP  RH WIND       PRES   REMARKS
NORTH PLATTE   PTSUNNY   74  51  44 SW6       29.93R
6HR MIN TEMP:  67; 6HR MAX TEMP:  75;

IMPERIAL       CLOUDY    73  46  38 SW5       29.95S
6HR MIN TEMP:  68; 6HR MAX TEMP:  76;

LEXINGTON      SUNNY     74  53  47 W6        29.92S
MCCOOK         SUNNY     76  50  40 SW5       29.94S
6HR MIN TEMP:  69; 6HR MAX TEMP:  77;

OGALLALA       CLOUDY    70  49  47 S6        29.93F
$$

NEZ005>010-023>029-035>040-094-290100-
NORTH CENTRAL NEBRASKA

CITY           SKY/WX    TMP DP  RH WIND       PRES   REMARKS
VALENTINE      SUNNY     74  48  39 VRB6      29.91R
6HR MIN TEMP:  69; 6HR MAX TEMP:  75;

AINSWORTH      SUNNY     71  49  45 N5        29.92R
BROKEN BOW     SUNNY     74  50  42 NW5       29.92R
6HR MIN TEMP:  67; 6HR MAX TEMP:  75;

O`NEILL        CLOUDY    66  58  74 N8        29.91S
ORD            MOSUNNY   74  53  48 NW10      29.89R
6HR MIN TEMP:  68; 6HR MAX TEMP:  75;

THEDFORD       SUNNY     73  50  43 N6        29.93S
$$

NEZ041-046>049-061>064-073>077-083>087-290100-
SOUTH CENTRAL NEBRASKA

CITY           SKY/WX    TMP DP  RH WIND       PRES   REMARKS
GRAND ISLAND   MOSUNNY   75  52  44 W10       29.91R
6HR MIN TEMP:  67; 6HR MAX TEMP:  76;

AURORA         SUNNY     74  54  49 NW8       29.90S
HASTINGS       SUNNY     75  53  46 NW10      29.91R
6HR MIN TEMP:  70; 6HR MAX TEMP:  76;

HEBRON         SUNNY     75  55  48 W6        29.91R
HOLDREGE       SUNNY     74  48  39 W5        29.93R
KEARNEY *      SUNNY     75  52  43 W9        29.93R
YORK           SUNNY     73  55  53 NW15      29.90R
$$

NEZ011>018-030>034-042>045-290100-
NORTHEAST NEBRASKA

CITY           SKY/WX    TMP DP  RH WIND       PRES   REMARKS
NORFOLK        MOSUNNY   64  57  78 NW10      29.87R
6HR MIN TEMP:  63; 6HR MAX TEMP:  69; 6HR PCP: TRACE;

ALBION         SUNNY     67  55  65 N9        29.90S
BLAIR          MOSUNNY   71  56  60 W9G20     29.86R
FREMONT        MOSUNNY   71  56  59 W23       29.87R
TEKAMAH        PTSUNNY   72  56  57 W20       29.83R
6HR MIN TEMP:  66; 6HR MAX TEMP:  73; 6HR PCP:  0.01;

WAYNE          PTSUNNY   64  57  79 NW13G20   29.86R
$$

NEZ050>053-065>068-078-088>093-290100-
SOUTHEAST NEBRASKA

CITY           SKY/WX    TMP DP  RH WIND       PRES   REMARKS
LINCOLN        SUNNY     75  55  49 W16       29.88R
6HR MIN TEMP:  68; 6HR MAX TEMP:  77;

OMAHA EPPLEY   MOSUNNY   73  55  53 W18       29.85R
6HR MIN TEMP:  69; 6HR MAX TEMP:  75; 6HR PCP: TRACE;

BEATRICE       SUNNY     74  55  51 W10G17    29.90R
FALLS CITY     MOSUNNY   76  59  55 W12       29.88R
6HR MIN TEMP:  71; 6HR MAX TEMP:  77;

NEBRASKA CITY  MOSUNNY   74  57  55 W14       29.88R
PLATTSMOUTH    MOSUNNY   75  57  54 W13       29.87R
$$

NEZ044-045-051>053-067-290100-
OMAHA AREA

CITY           SKY/WX    TMP DP  RH WIND       PRES   REMARKS
OMAHA EPPLEY   MOSUNNY   73  55  53 W18       29.85R
6HR MIN TEMP:  69; 6HR MAX TEMP:  75; 6HR PCP: TRACE;

BLAIR          MOSUNNY   71  56  60 W9G20     29.86R
FREMONT        MOSUNNY   71  56  59 W23       29.87R
MILLARD        MOSUNNY   74  56  53 W13G20    29.86R
OFFUTT AFB     MOSUNNY   74  55  50 W14G22    29.85R
PLATTSMOUTH    MOSUNNY   75  57  54 W13       29.87R
WAHOO          FAIR      72  57  58 W16       29.87R
$$



USA.gov is the U.S. government's official web portal to all federal, state and local government web resources and services.